This demonstration page uses our WeatherBlox Daily Observations layout. Learn more.

Left ArrowRight Arrow

39.51506, -84.39828

Hourly Observations for September 10, 2020

Temp ( °F °C ) Dew Point ( °F °C ) Humidity (%) Winds ( mph kmh ) Pressure ( in mb ) Visibility ( mi km ) Precip ( " mm )
12:15 am 00:15 Clear 66 19.1 66 18.9 99 99 Calm 30.22 1023 10 16.0934 0 0
12:35 am 00:35 Clear 67 19.5 66 18.9 96 96 Calm 30.22 1023 10 16.0934 0 0
12:55 am 00:55 Clear 66 18.8 65 18.4 98 98 Calm 30.22 1023 10 16.0934 0 0
1:15 am 01:15 Clear 67 19.2 66 18.9 98 98 Calm 30.22 1023 10 16.0934 0 0
1:35 am 01:35 Clear 66 19.1 66 18.7 98 98 Calm 30.22 1023 10 16.0934 0 0
1:55 am 01:55 Clear 66 19.1 66 18.8 98 98 Calm 30.21 1023 10 16.0934 0 0
2:15 am 02:15 Clear 65 18.6 65 18.5 99 99 Calm 30.21 1023 10 16.0934 0 0
2:35 am 02:35 Clear 65 18.4 65 18.3 99 99 Calm 30.21 1023 10 16.0934 0 0
2:55 am 02:55 Clear 65 18.5 65 18.4 99 99 Calm 30.2 1023 10 16.0934 0 0
3:15 am 03:15 Clear 66 18.7 66 18.7 100 100 Calm 30.2 1023 10 16.0934 0 0
3:35 am 03:35 Clear 64 18 64 18 100 100 Calm 30.2 1023 10 16.0934 0 0
3:55 am 03:55 Clear 64 18 N/A N/A Calm 30.2 1023 10 16.0934 0 0
4:15 am 04:15 Clear 64 18 N/A N/A Calm 30.21 1023 10 16.0934 0 0
4:35 am 04:35 Clear 64 18 N/A N/A Calm 30.21 1023 10 16.0934 0 0
4:55 am 04:55 Hazy 64 18 N/A N/A Calm 30.21 1023 7 11.26538 0 0
5:15 am 05:15 Hazy 64 18 N/A N/A Calm 30.22 1023 4 6.43736 0 0
5:35 am 05:35 Clear with Mist and Fog 63 17 N/A N/A Calm 30.21 1023 3 4.82802 0 0
5:55 am 05:55 Clear 64 18 N/A N/A Calm 30.21 1023 10 16.0934 0 0
6:15 am 06:15 Clear 64 18 N/A N/A NW 3 6 30.21 1023 7 11.26538 0 0
6:35 am 06:35 Partly Cloudy 64 18 N/A N/A NW 3 6 30.22 1023 10 16.0934 0 0
6:55 am 06:55 Mostly Cloudy 64 18 N/A N/A Calm 30.22 1023 10 16.0934 0 0
7:15 am 07:15 Sunny 64 18 N/A N/A Calm 30.22 1023 10 16.0934 0 0
7:35 am 07:35 Sunny 64 18 N/A N/A Calm 30.23 1024 10 16.0934 0 0
7:55 am 07:55 Sunny 64 18 N/A N/A Calm 30.23 1024 10 16.0934 0 0
8:15 am 08:15 Sunny 65 18.5 65 18.4 99 99 Calm 30.24 1024 10 16.0934 0 0
8:35 am 08:35 Sunny 68 19.8 66 19.1 96 96 Calm 30.23 1024 10 16.0934 0 0
8:55 am 08:55 Sunny 69 20.4 67 19.4 94 94 Calm 30.23 1024 10 16.0934 0 0
9:15 am 09:15 Sunny 71 21.7 67 19.7 88 88 Calm 30.23 1024 10 16.0934 0 0
9:35 am 09:35 Sunny 73 23 68 20.1 84 84 NE 3 6 30.23 1024 10 16.0934 0 0
9:55 am 09:55 Partly Cloudy 76 24.5 69 20.4 78 78 NE 3 6 30.22 1023 10 16.0934 0 0
10:15 am 10:15 Cloudy 79 26.1 69 20.7 72 72 NE 5 7 30.23 1024 10 16.0934 0 0
10:35 am 10:35 Mostly Cloudy 80 26.7 70 20.9 71 71 NNW 6 9 30.22 1023 10 16.0934 0 0
10:55 am 10:55 Sunny 81 27.2 69 20.8 68 68 Calm 30.22 1023 10 16.0934 0 0
11:15 am 11:15 Sunny 83 28.1 68 20.2 62 62 NE 7 11 30.22 1023 10 16.0934 0 0
11:35 am 11:35 Sunny 84 28.8 68 20.1 59 59 ENE 6 9 30.21 1023 10 16.0934 0 0
11:55 am 11:55 Partly Cloudy 85 29.7 69 20.3 57 57 E 6 9 30.2 1023 10 16.0934 0 0
12:15 pm 12:15 Mostly Cloudy 86 30.2 68 19.9 54 54 NE 5 7 30.2 1023 10 16.0934 0 0
12:35 pm 12:35 Mostly Cloudy 86 30 67 19.7 54 54 NNE 7 11 30.2 1023 10 16.0934 0 0
12:55 pm 12:55 Cloudy 85 29.2 68 20.1 58 58 N 8 13 30.2 1023 10 16.0934 0 0
1:15 pm 13:15 Mostly Cloudy 86 29.9 68 20.2 56 56 N 6 9 30.2 1023 10 16.0934 0 0
1:35 pm 13:35 Partly Cloudy 85 29.5 69 20.3 58 58 NNE 10 17 30.19 1022 10 16.0934 0 0
1:55 pm 13:55 Mostly Cloudy 86 29.8 68 20.1 56 56 NNE 5 7 30.18 1022 10 16.0934 0 0
2:15 pm 14:15 Sunny 87 30.4 68 19.9 53 53 NNE 8 13 30.18 1022 10 16.0934 0 0
2:35 pm 14:35 Partly Cloudy 88 31 69 20.3 53 53 N 8 13 30.17 1022 10 16.0934 0 0
2:55 pm 14:55 Mostly Cloudy 87 30.7 69 20.4 54 54 NNW 9 15 30.17 1022 10 16.0934 0 0
3:15 pm 15:15 Mostly Cloudy 85 29.5 68 20 57 57 NNE 5 7 30.17 1022 10 16.0934 0 0
3:35 pm 15:35 Partly Cloudy 85 29.4 69 20.3 58 58 N 10 17 30.17 1022 10 16.0934 0 0
3:55 pm 15:55 Sunny 86 29.9 68 20.1 56 56 NNE 7 11 30.16 1021 10 16.0934 0 0
4:15 pm 16:15 Hazy 86 30.2 68 19.9 54 54 N 9 15 30.16 1021 5 8.0467 0 0
4:30 pm 16:30 Sunny 86 29.9 68 20.1 56 56 N 7 11 30.16 1021 10 16.0934 0 0
4:55 pm 16:55 Sunny 85 29.6 68 20.1 57 57 N 9 15 30.16 1021 10 16.0934 0 0
5:15 pm 17:15 Sunny 84 28.9 69 20.5 61 61 N 12 19 30.16 1021 10 16.0934 0 0
5:35 pm 17:35 Sunny 83 28.6 69 20.5 62 62 N 8 13 30.16 1021 10 16.0934 0 0
5:55 pm 17:55 Mostly Cloudy 83 28.3 69 20.3 62 62 N 10 17 30.17 1022 10 16.0934 0 0
6:15 pm 18:15 Sunny 82 27.7 69 20.5 65 65 NNW 10 17 30.17 1022 10 16.0934 0 0
6:35 pm 18:35 Sunny 81 27.2 69 20.8 68 68 N 12 19 30.18 1022 10 16.0934 0 0
6:55 pm 18:55 Partly Cloudy 80 26.8 70 21.1 71 71 N 8 13 30.18 1022 10 16.0934 0 0
7:15 pm 19:15 Sunny 79 26.2 70 20.9 73 73 NNW 10 17 30.18 1022 10 16.0934 0 0
7:35 pm 19:35 Sunny 77 25 70 21 79 79 N 12 19 30.18 1022 10 16.0934 0 0
7:55 pm 19:55 Partly Cloudy 76 24.3 70 20.9 81 81 N 10 17 30.18 1022 10 16.0934 0 0
8:15 pm 20:15 Mostly Cloudy 75 23.9 69 20.6 82 82 N 8 13 30.2 1023 10 16.0934 0 0
8:35 pm 20:35 Cloudy 75 23.7 69 20.6 83 83 N 7 11 30.2 1023 10 16.0934 0 0
8:55 pm 20:55 Cloudy 74 23.4 69 20.7 85 85 N 8 13 30.2 1023 10 16.0934 0 0
9:15 pm 21:15 Cloudy 74 23.2 69 20.7 86 86 N 9 15 30.21 1023 10 16.0934 0 0
9:35 pm 21:35 Cloudy 73 23 69 20.6 86 86 N 10 17 30.22 1023 10 16.0934 0 0
9:55 pm 21:55 Mostly Cloudy 73 22.6 69 20.4 87 87 NNE 12 19 30.22 1023 10 16.0934 0 0
10:15 pm 22:15 Cloudy 72 22.3 69 20.4 89 89 NNE 10 17 30.22 1023 10 16.0934 0 0
10:35 pm 22:35 Cloudy 72 22.2 69 20.3 89 89 NNE 10 17 30.22 1023 10 16.0934 0 0
10:55 pm 22:55 Cloudy 72 22.1 68 20.2 89 89 NNE 8 13 30.22 1023 10 16.0934 0 0
11:15 pm 23:15 Cloudy 72 22 68 20.1 89 89 NNE 7 11 30.22 1023 10 16.0934 0 0
11:35 pm 23:35 Mostly Cloudy with Mist and Fog 71 21.8 68 20 90 90 N 6 9 30.22 1023 5 8.0467 0 0
11:55 pm 23:55 Cloudy 71 21.6 68 19.9 90 90 NNE 8 13 30.22 1023 10 16.0934 0 0

Powered by AerisWeather